Weather History for KOKC - October, 2012

Change the Weather History Date:

Friday, October 5, 2012

  Actual Average Record
Temperature  
Mean Temperature 53 °F 66 °F  
Max Temperature 59 °F 77 °F 95 °F (1947)
Min Temperature 46 °F 55 °F 38 °F (1932)
Degree Days  
Heating Degree Days 12 3  
Month to date heating degree days 13 11  
Since 1 July heating degree days 21 30  
Cooling Degree Days 0 4  
Month to date cooling degree days 3 21  
Year to date cooling degree days 2435 2046  
Growing Degree Days 4 (Base 50)    
Moisture  
Dew Point 43 °F    
Average Humidity 63    
Maximum Humidity 71    
Minimum Humidity 55    
Precipitation  
Precipitation 0.01 in 0.12 in 1.74 in (1970)
Month to date precipitation 0.01 0.60  
Year to date precipitation 25.33 29.55  
Snow  
Snow 0.00 in 0.00 in 0.00 in ()
Month to date snowfall 0.0 0.0  
Since 1 July snowfall 0.0 0.0  
Snow Depth -    
Sea Level Pressure  
Sea Level Pressure 30.16 in    
Wind  
Wind Speed 14 mph (NNE)    
Max Wind Speed 21 mph    
Max Gust Speed 26 mph    
Visibility 10 miles    
Events Rain    
T = Trace of Precipitation, MM = Missing Value Source: NWS Daily Summary

Daily Weather History Graph

Daily Weather History Graph

Search for Another Location

Airport or City:

Trip Planner

Search our weather history database for the weather conditions in past years. The results will help you decide how hot, cold, wet, or windy it might be!

Date:

Astronomy

Oct. 05, 2012 Rise Set
Actual Time 7:28 AM CDT 7:07 PM CDT
Civil Twilight 7:03 AM CDT 7:33 PM CDT
Nautical Twilight 6:33 AM CDT 8:02 PM CDT
Astronomical Twilight 6:04 AM CDT 8:32 PM CDT
Moon 10:42 PM CDT (10/5) 12:27 PM CDT (10/5)
Length of Visible Light 12h 29m
Length of Day
11h 39m
Waning Gibbous, 74% of the Moon is Illuminated
Oct 5
Waning Gibbous
Oct 8
Last Quarter
Oct 15
New
Oct 21
First Quarter
Oct 29
Full

Hourly Weather History & Observations

Time (CDT) Temp. Dew Point Humidity Pressure Visibility Wind Dir Wind Speed Gust Speed Precip Events Conditions
12:52 AM 57.9 °F 44.1 °F 60% 30.14 in 10.0 mi North 11.5 mph - N/A   Overcast
1:52 AM 57.0 °F 44.1 °F 62% 30.14 in 10.0 mi North 13.8 mph - N/A   Overcast
2:52 AM 55.4 °F 44.6 °F 67% 30.15 in 10.0 mi NNE 15.0 mph 20.7 mph N/A   Overcast
3:52 AM 54.0 °F 45.0 °F 72% 30.13 in 10.0 mi North 15.0 mph - 0.01 in   Overcast
4:14 AM 53.6 °F 44.6 °F 72% 30.14 in 10.0 mi NNE 11.5 mph 19.6 mph N/A   Overcast
4:52 AM 54.0 °F 44.1 °F 69% 30.13 in 10.0 mi North 11.5 mph - N/A   Overcast
5:03 AM 53.6 °F 44.6 °F 72% 30.14 in 10.0 mi North 12.7 mph - N/A   Overcast
5:52 AM 53.1 °F 45.0 °F 74% 30.13 in 10.0 mi NNE 13.8 mph 21.9 mph 0.00 in   Overcast
6:42 AM 53.6 °F 44.6 °F 72% 30.14 in 10.0 mi NNE 10.4 mph - N/A   Overcast
6:52 AM 53.1 °F 44.1 °F 71% 30.13 in 10.0 mi NE 13.8 mph - N/A   Overcast
7:52 AM 52.0 °F 43.0 °F 71% 30.14 in 10.0 mi NNE 11.5 mph - N/A   Overcast
8:52 AM 50.0 °F 46.0 °F 86% 30.15 in 7.0 mi NNE 13.8 mph - 0.00 in Rain Light Rain
9:52 AM 51.8 °F 44.6 °F 76% 30.17 in 10.0 mi NNE 11.5 mph - N/A   Overcast
10:41 AM 53.6 °F 44.6 °F 72% 30.16 in 10.0 mi NNE 13.8 mph - N/A   Overcast
10:52 AM 54.0 °F 45.0 °F 72% 30.15 in 10.0 mi North 11.5 mph - N/A   Overcast
11:52 AM 53.6 °F 44.6 °F 72% 30.17 in 10.0 mi NNE 11.5 mph 19.6 mph N/A   Overcast
12:52 PM 55.0 °F 45.0 °F 69% 30.16 in 10.0 mi NNE 15.0 mph - N/A   Overcast
1:52 PM 55.4 °F 44.6 °F 67% 30.16 in 10.0 mi North 15.0 mph 20.7 mph N/A   Overcast
2:52 PM 55.9 °F 45.0 °F 67% 30.14 in 10.0 mi NNE 15.0 mph - N/A   Overcast
3:52 PM 57.0 °F 44.1 °F 62% 30.14 in 10.0 mi NNE 17.3 mph - N/A   Overcast
4:16 PM 57.2 °F 42.8 °F 59% 30.14 in 10.0 mi NE 19.6 mph - N/A   Overcast
4:52 PM 57.9 °F 43.0 °F 58% 30.13 in 10.0 mi NE 17.3 mph - N/A   Overcast
5:52 PM 57.0 °F 41.0 °F 55% 30.14 in 10.0 mi ENE 15.0 mph - N/A   Mostly Cloudy
6:52 PM 55.0 °F 41.0 °F 59% 30.16 in 10.0 mi NE 13.8 mph 21.9 mph N/A   Mostly Cloudy
7:52 PM 53.1 °F 41.0 °F 64% 30.18 in 10.0 mi ENE 12.7 mph - N/A   Scattered Clouds
8:52 PM 51.1 °F 39.9 °F 66% 30.21 in 10.0 mi NE 11.5 mph - N/A   Scattered Clouds
9:52 PM 50.0 °F 39.0 °F 66% 30.24 in 10.0 mi NE 13.8 mph - N/A   Scattered Clouds
10:52 PM 48.9 °F 37.0 °F 64% 30.24 in 10.0 mi NE 17.3 mph 25.3 mph N/A   Scattered Clouds
11:52 PM 48.0 °F 35.1 °F 61% 30.25 in 10.0 mi NE 17.3 mph - N/A   Mostly Cloudy